Regional Weather Roundup
Issued by NWS Northern Indiana

Home | Current Version | Previous Version | Graphics & Text | Print | Product List | Glossary On
Versions: 1 2 3 4 5 6 7 8 9 10 11 12 13 14 15 16 17 18 19 20 21 22 23 24 25 26 27 28 29 30 31 32 33 34 35 36 37 38 39 40 41 42 43 44 45 46 47 48 49 50
000
ASUS43 KIWX 260210
RWRIWX

KIWX WEATHER ROUNDUP
NATIONAL WEATHER SERVICE NORTHERN INDIANA
1000 PM EDT MON MAY 25 2015

NOTE: "FAIR" INDICATES FEW OR NO CLOUDS BELOW 12,000 FEET WITH NO
SIGNIFICANT WEATHER AND/OR OBSTRUCTIONS TO VISIBILITY.

* THESE STATIONS ARE NOT UNDER NWS QUALITY CONTROL. THEY ALSO MAY NOT
  REPORT WEATHER SUCH AS PRECIPITATION OR FOG.

INZ001>027-260300-
NORTHERN INDIANA

CITY           SKY/WX    TMP DP  RH WIND       PRES   REMARKS
GARY*          PTCLDY    72  59  64 S8        29.92F
VALPARAISO     CLOUDY    74  56  53 S8        29.96R
MICHIGAN CITY* CLOUDY    72  54  53 S3        29.95S
LAPORTE*       CLOUDY    75  56  51 S6        29.96S
KNOX*          CLOUDY    73  59  60 S13G18    29.96S
SOUTH BEND     MOCLDY    72  59  63 S8        29.97R
GOSHEN         MOCLDY    73  62  68 S12       29.99R
MONTICELLO*    CLOUDY    73  63  72 S6        29.98S
LOGANSPORT*    CLOUDY    70  59  68 S9        30.01S
ROCHESTER*     MOCLDY    75  63  64 SW6       30.01R
WARSAW*        PTCLDY    73  63  68 SW3       30.00R
ANGOLA*        CLEAR     73  63  68 SW10      30.00R
FORT WAYNE     MOCLDY    73  62  68 S10       30.03R
HUNTINGTON*    MOCLDY    72  62  71 S7        30.02R
PERU/GRISSOM   MOCLDY    71  64  77 S8        30.00R
MARION*        MOCLDY    71  61  70 S10       30.04R

$$
INZ028>050-260300-
CENTRAL INDIANA

CITY           SKY/WX    TMP DP  RH WIND       PRES   REMARKS
LAFAYETTE      CLOUDY    72  63  73 S8        29.98F
KOKOMO*        MOCLDY    72  63  73 S14       30.02R
MUNCIE*        MOCLDY    72  62  71 S7        30.05R
INDIANAPOLIS   CLOUDY    70  63  78 S9        30.03S

$$
MIZ043>046-050>051-056>058-064>065-071>073-077>080-260300-
SOUTHWEST LOWER MICHIGAN

CITY           SKY/WX    TMP DP  RH WIND       PRES   REMARKS
BATTLE CREEK   MOCLDY    68  60  75 S3        29.98R
BENTON HARBOR  MOCLDY    69  57  65 SE5       29.93F
COLDWATER*     MOCLDY    70  59  68 SW5       29.99R
HILLSDALE*     PTCLDY    73  61  65 SW5       30.01R
HOLLAND        MOCLDY    70  58  65 SW9       29.94R
GRAND RAPIDS   MOCLDY    69  60  73 S7        29.94R
KALAMAZOO      MOCLDY    70  60  70 CALM      29.97R
STURGIS*       MOCLDY    72  61  68 S3        29.99R
THREE RIVERS*  FAIR      70  58  66 SW3       29.97S

$$
OHZ001>008-015>018-024>025-260300-
NORTHWEST OHIO

CITY           SKY/WX    TMP DP  RH WIND       PRES   REMARKS
WAUSEON*       FAIR      75  63  64 SW10      30.01R
DEFIANCE       MOCLDY    75  61  61 SW9       30.01R
FINDLAY        CLOUDY    73  62  68 S15       30.04R
TOLEDO EXPRESS MOCLDY    75  61  61 SW12      30.01R
TOLEDO METCALF MOCLDY    75  61  61 S15       30.02R
LIMA           CLOUDY    71  62  73 S8        30.06R

$$
AND FOR LAKE MICHIGAN COASTAL AND OPEN LAKE BUOY OBSERVATIONS

STATION/POSITION TEMP    WIND        PRES    VSBY  WAVE
                 AIR SEA DIR/SP/G                  HT/PER
                 (F)     (DEG/KT/KT) (MB)    (MI)  (FT/S)
CALUMET HARBOR    76     170/  3/  5   N/A
MICHIGAN CITY     77     160/  9/ 12   N/A
BURNS HARBOR      77     190/  7/ 10 1013.9S
SAINT JOSEPH      72     120/  2/  6 1013.9F
SOUTH LAKE BUOY   47 38  190/ 10/ 12 1013.1R         1/ 4
4 MI NW BRIDGMAN  62 55  200/  6/  6   N/A           1/ 4
MICHIGAN CITY     64 52  170/  6/  8   N/A           1/ 3

$$
&&



USA.gov is the U.S. government's official web portal to all federal, state and local government web resources and services.